User: anonymous   Login
Location: Columbia
(38.9520°N, 92.3340°W)
Time: 03:21:59
(UTC-06:00)
Language:

CZ-2C R/B - Orbit

View from above orbital plane
View from above orbital plane
View from above satellite
View from above satellite

Ground track
Ground track

The orbit data is extracted from the following two-line orbital elements,

1 28480U 04046B   14351.44030226  .00000188  00000-0  86853-4 0  5112
2 28480 098.1126 133.5714 0142943 040.4168 355.8043 14.25407032524198
Epoch (UTC): 17 December 2014 10:34:02
Eccentricity: 0.0142943
inclination: 98.1126°
perigee height: 704 km
apogee height: 910 km
right ascension of ascending node: 133.5714°
argument of perigee: 40.4168°
revolutions per day: 14.25407032
mean anomaly at epoch: 355.8043°
orbit number at epoch: 52419

The dashed part of the orbit path shows where the satellite is in the earth's shadow,  

DLR